#timestamp,LO_Frequency,Hit,StdDev 
1558472415.1,286046999.7,N
1558472416.0,286046999.7,N
1558472435.8,286047002.6,N
1558472455.7,286047000.3,N
1558472475.5,286047000.2,N
1558472495.4,286047002.4,N
1558472515.2,286047004.4,N
1558472535.0,286047001.8,N
1558472535.9,286047001.8,N
1558472555.8,286047002.8,N
1558472575.6,286047000.0,N
1558472595.4,286047002.5,N
1558472615.3,286047000.2,N
1558472635.1,286047002.3,N
1558472655.9,286047001.7,N
1558472675.7,286047003.3,N
1558472695.5,286047001.7,N
1558472715.4,286047002.7,N
1558472735.2,286047002.3,N
1558472755.1,286046998.8,N
1558472756.0,286046998.8,N
1558472775.8,286047001.0,N
1558472795.6,286047002.4,N
1558472815.5,286047000.2,N
1558472835.3,286047001.6,N
1558472855.1,286047002.5,N
1558472875.9,286047002.3,N
1558472895.7,286047000.1,N
1558472915.6,286047001.3,N
1558472935.4,286046999.9,N
1558472955.2,286047001.2,N
1558472975.1,286046998.8,N
1558472976.0,286046998.8,N
1558472995.8,286047000.9,N
1558473015.7,286047000.8,N
1558473035.5,286047000.9,N
1558473055.3,286047002.5,N
1558473075.2,286047002.5,N
1558473095.9,286047000.1,N
1558473115.7,286046999.8,N
1558473135.6,286047002.6,N
1558473155.4,286047001.4,N
1558473175.3,286047002.7,N
1558473195.1,286047000.9,N
1558473196.0,286047000.9,N
1558473215.8,286047000.6,N
1558473235.7,286047000.4,N
1558473255.5,286047001.6,N
1558473275.4,286047006.0,Y
1558473295.2,286047005.4,P
1558473315.0,286047003.9,N
1558473315.9,286047003.9,N
1558473335.8,286047000.2,N
1558473355.6,286047001.8,N
1558473375.4,286046999.8,N
1558473395.3,286047000.8,N
1558473415.1,286047001.9,N
1558473435.9,286047001.8,N
1558473455.7,286047000.1,N
1558473475.5,286047000.6,N
1558473495.4,286047002.9,N
1558473545.2,286047002.7,E
1558473555.1,286047002.2,N
1558473575.9,286047001.1,P
1558473595.7,286047002.8,P
1558473615.6,286047002.2,Y
1558473635.4,286047002.8,P
1558473655.2,286047003.9,P
1558473675.1,286046998.3,N
1558473676.0,286046998.3,N
1558473695.8,286046999.0,N
1558473715.7,286047000.0,N
1558473735.5,286047000.3,N
1558473755.3,286047002.0,N
1558473775.2,286047005.8,Y
1558473795.0,286047000.4,P
1558473795.9,286047000.4,N
1558473815.7,286046998.7,P
1558473835.6,286046998.9,N
1558473855.4,286046998.6,N
1558473875.3,286047000.7,N
1558473895.1,286047001.8,N
1558473896.0,286047001.8,N
1558473915.8,286047011.9,Y
1558473935.7,286046998.9,P
1558473955.5,286046999.2,N
1558473975.4,286046998.8,N
1558473995.2,286047001.2,N
1558474015.0,286047002.8,Y
1558474015.9,286047002.8,P
1558474035.8,286046999.8,N
1558474055.6,286047001.1,N
1558474075.4,286047001.2,N
1558474095.3,286046996.6,Y
1558474115.1,286046997.2,P
1558474135.9,286046996.9,N
1558474155.7,286046997.4,N
1558474175.5,286046999.5,N
1558474195.4,286046999.4,N
1558474215.2,286046999.5,N
1558474235.0,286046998.2,N
1558474235.9,286046998.2,N
1558474255.8,286047000.1,N
1558474275.6,286046998.7,N
1558474295.5,286046996.6,N
1558474315.3,286046999.0,N
1558474335.1,286046998.8,N
1558474355.9,286046999.9,N
1558474375.7,286046998.1,N
1558474395.5,286046999.2,N
1558474415.4,286046999.3,N
1558474435.2,286046999.4,N
1558474455.1,286046997.3,N
1558474456.0,286046997.3,N
1558474475.8,286046997.9,N
1558474495.6,286046997.5,N
1558474515.5,286046997.6,N
1558474535.3,286046997.5,N
1558474555.1,286046995.6,Y
1558474575.9,286047000.4,P
1558474595.7,286047000.5,N
1558474615.6,286047002.3,N
1558474635.4,286046998.1,N
1558474655.2,286046999.5,N
1558474675.1,286046996.8,N
1558474676.0,286046996.8,N
1558474695.8,286046995.0,N
1558474715.6,286046994.9,N
1558474735.5,286046997.4,N
1558474755.3,286046995.2,N
1558474775.2,286046998.0,N
1558474795.0,286046996.8,N
1558474795.9,286046996.8,N
1558474815.7,286046997.3,N
1558474835.6,286046997.0,N
1558474855.4,286046995.3,N
1558474875.3,286046994.6,N
1558474895.1,286046993.5,Y
1558474896.0,286046993.5,P
1558474915.8,286046997.0,N
1558474935.7,286046998.0,N
1558474955.5,286046995.0,N
1558474975.3,286046995.5,N
1558474995.2,286046996.1,N
1558475015.0,286046994.8,Y
1558475015.9,286046994.8,P
1558475035.8,286046995.7,P
1558475055.6,286046993.8,P
1558475075.4,286046995.8,Y
1558475095.3,286047000.5,P
1558475115.1,286047001.6,N
1558475135.9,286047000.2,N
1558475155.7,286047000.7,N
1558475175.5,286047001.0,N
1558475195.4,286047000.1,N
1558475215.2,286047000.4,N
1558475235.0,286047003.7,N
1558475235.9,286047003.7,N
1558475255.8,286047003.4,N
1558475275.6,286047003.4,N
1558475295.5,286047003.7,N
1558475315.3,286047004.0,N
1558475335.1,286047003.8,N
1558475355.9,286047003.3,N
1558475375.7,286047003.1,N
1558475395.6,286047006.0,N
1558475415.4,286047006.0,N
1558475435.2,286047003.0,N
1558475455.1,286047004.1,N
1558475456.0,286047004.1,N
1558475475.8,286047002.0,N
1558475495.6,286047001.7,N
1558475515.5,286047003.6,N
1558475535.3,286047002.1,N
1558475555.2,286047001.8,N
1558475575.9,286047003.3,N
1558475595.7,286047005.8,N
1558475615.6,286047007.4,Y
1558475635.4,286047002.0,P
1558475655.3,286047000.7,N
1558475675.1,286047000.8,N
1558475676.0,286047000.8,N
1558475695.8,286047000.5,N
1558475715.7,286047001.6,N
1558475735.5,286047002.0,N
1558475755.3,286047002.3,Y
1558475775.2,286047001.8,P
1558475795.0,286047002.1,P
1558475795.9,286047002.1,P
1558475815.8,286047000.8,N
1558475835.6,286047002.6,Y
1558475855.4,286046998.1,P
1558475875.3,286047000.7,N
1558475895.1,286046998.1,N
1558475915.8,286046998.6,N
1558475935.7,286046996.7,N
1558475955.5,286046999.5,N
1558475975.4,286046997.7,N
1558475995.2,286046998.6,N
